Date String (YYYY-MM-DD hh:mm:ss) UTC,Instrument flags,absolute air pressure of the measurement (hPa),sample flow rate (lpm),inlet stack bypass flow (lpm),air temperature of the measurement (°C),ambient temperature measured by the external sensor (°C),aerosol sample conditioner tube jacket temperature (°C),OPC LED temperature (°C),internal box temperature (°C),relative humidity of the measurement (%),span deviation,mass concentration of particles derived from Lorenz-Mie calculation of OPC scattering (μg/m³),mass concentration of particles derived from Lorenz-Mie calculation of OPC scattering (μg/m³),mass concentration of particles derived from Lorenz-Mie calculation of OPC scattering (μg/m³)
DateTimeUTC,F1_M11,P_M11,Q1_M11,Q2_M11,T1_M11,T2_M11,T3_M11,T4_M11,T5_M11,U1_M11,ZSPAN_M11,X0_M11,X2_M11,X1_M11
2023-07-27 11:00:00,SystemResetWarning,0833.2,5.00,000.00,029.6,028.4,000.0,038.0,031.2,21.7,0000.0,0004.02,0002.47,0001.87
2023-07-27 11:01:00,SystemResetWarning,0833.2,5.00,000.00,029.6,028.4,000.0,038.0,031.2,21.3,0000.0,0004.66,0002.45,0001.87
2023-07-27 11:02:00,SystemResetWarning,0833.2,5.00,000.00,029.6,028.5,000.0,038.0,031.3,21.0,0000.0,0004.74,0002.45,0001.89
2023-07-27 11:03:00,SystemResetWarning,0833.2,5.00,000.00,029.7,028.5,000.0,038.0,031.3,21.0,0000.0,0004.48,0002.40,0001.90
2023-07-27 11:04:00,SystemResetWarning,0833.2,5.00,000.00,029.7,028.6,000.0,038.1,031.3,22.3,0000.0,0004.34,0002.38,0001.91
2023-07-27 11:05:00,SystemResetWarning,0833.2,4.99,000.00,029.7,028.5,000.0,038.1,031.3,21.8,0000.0,0004.41,0002.40,0001.91
2023-07-27 11:06:00,SystemResetWarning,0833.1,4.98,000.00,029.7,026.7,000.0,038.0,031.1,22.1,0000.0,0004.57,0002.46,0001.92
2023-07-27 11:07:00,SystemResetWarning,0833.3,5.02,000.00,029.6,025.4,000.0,037.9,030.9,22.8,0000.0,0004.88,0002.53,0001.92
2023-07-27 11:08:00,SystemResetWarning,0833.0,5.00,000.00,029.5,025.4,000.0,037.8,030.7,22.9,0000.0,0004.95,0002.54,0001.93
2023-07-27 11:09:00,SystemResetWarning,0833.3,4.99,000.00,029.4,025.7,000.0,037.9,030.6,23.0,0000.0,0004.96,0002.53,0001.91
2023-07-27 11:10:00,SystemResetWarning,0833.2,5.00,000.00,029.4,026.1,000.0,037.9,030.7,23.7,0000.0,0005.18,0002.55,0001.92
2023-07-27 11:11:00,SystemResetWarning,0833.0,5.01,000.00,029.3,026.5,000.0,037.9,030.7,23.4,0000.0,0005.81,0002.60,0001.93
2023-07-27 11:12:00,SystemResetWarning,0833.2,5.00,000.00,029.3,026.8,000.0,037.9,030.8,22.6,0000.0,0005.54,0002.61,0001.94
2023-07-27 11:13:00,SystemResetWarning,0833.4,5.00,000.00,029.3,027.1,000.0,037.9,030.8,22.2,0000.0,0005.15,0002.61,0001.93
2023-07-27 11:14:00,SystemResetWarning,0833.2,4.99,000.00,029.4,027.4,000.0,037.9,030.9,21.8,0000.0,0005.12,0002.60,0001.92
2023-07-27 11:15:00,SystemResetWarning,0833.1,5.00,000.00,029.4,027.6,000.0,037.9,030.9,21.6,0000.0,0005.13,0002.60,0001.90
2023-07-27 11:16:00,SystemResetWarning,0833.1,5.00,000.00,029.4,027.7,000.0,037.9,031.0,21.4,0000.0,0005.06,0002.58,0001.89
2023-07-27 11:17:00,SystemResetWarning,0833.2,5.00,000.00,029.4,027.9,000.0,037.9,031.0,21.8,0000.0,0004.91,0002.52,0001.85
2023-07-27 11:18:00,SystemResetWarning,0833.2,5.00,000.00,029.4,028.0,000.0,037.9,031.0,22.9,0000.0,0004.56,0002.41,0001.83
2023-07-27 11:19:00,SystemResetWarning,0833.2,4.99,000.00,029.5,028.1,000.0,037.9,031.1,22.0,0000.0,0004.38,0002.33,0001.80
2023-07-27 11:20:00,SystemResetWarning,0833.2,4.99,000.00,029.5,028.2,000.0,037.9,031.1,21.8,0000.0,0004.44,0002.35,0001.79
2023-07-27 11:21:00,SystemResetWarning,0833.2,4.99,000.00,029.5,028.3,000.0,037.9,031.1,21.6,0000.0,0004.52,0002.38,0001.79
2023-07-27 11:22:00,SystemResetWarning,0833.2,4.99,000.00,029.5,028.3,000.0,038.0,031.2,21.3,0000.0,0003.88,0002.34,0001.78
2023-07-27 11:23:00,SystemResetWarning,0833.2,5.00,000.00,029.6,028.4,000.0,038.0,031.2,21.2,0000.0,0003.85,0002.34,0001.76
2023-07-27 11:24:00,SystemResetWarning,0833.2,5.01,000.00,029.6,028.4,000.0,038.0,031.2,21.1,0000.0,0003.69,0002.32,0001.75
2023-07-27 11:25:00,SystemResetWarning,0833.3,5.00,000.00,029.6,028.5,000.0,038.0,031.3,21.1,0000.0,0003.89,0002.37,0001.74
2023-07-27 11:26:00,SystemResetWarning,0833.3,5.00,000.00,029.7,028.5,000.0,038.0,031.3,21.1,0000.0,0003.94,0002.40,0001.75
2023-07-27 11:27:00,SystemResetWarning,0833.2,5.00,000.00,029.7,028.3,000.0,038.0,031.3,21.2,0000.0,0004.35,0002.41,0001.77
2023-07-27 11:28:00,SystemResetWarning,0833.3,4.99,000.00,029.7,026.4,000.0,037.9,031.2,21.1,0000.0,0004.74,0002.40,0001.78
2023-07-27 11:29:00,SystemResetWarning,0833.2,5.01,000.00,029.6,025.4,000.0,037.8,031.0,22.5,0000.0,0004.92,0002.41,0001.78
2023-07-27 11:30:00,SystemResetWarning,0833.2,5.01,000.00,029.5,025.4,000.0,037.8,030.7,22.2,0000.0,0006.01,0002.43,0001.78
2023-07-27 11:31:00,SystemResetWarning,0833.3,4.99,000.00,029.4,025.8,000.0,037.9,030.6,23.3,0000.0,0006.16,0002.47,0001.78
2023-07-27 11:32:00,SystemResetWarning,0833.2,4.99,000.00,029.3,026.2,000.0,037.9,030.7,24.4,0000.0,0006.66,0002.48,0001.76
2023-07-27 11:33:00,SystemResetWarning,0833.3,5.00,000.00,029.3,026.5,000.0,037.9,030.7,23.0,0000.0,0006.58,0002.47,0001.76
2023-07-27 11:34:00,SystemResetWarning,0833.2,5.01,000.00,029.3,026.9,000.0,037.9,030.8,22.7,0000.0,0006.51,0002.44,0001.76
2023-07-27 11:35:00,SystemResetWarning,0833.3,5.01,000.00,029.3,027.2,000.0,037.9,030.9,22.2,0000.0,0007.33,0002.47,0001.76
2023-07-27 11:36:00,SystemResetWarning,0833.3,4.99,000.00,029.4,027.4,000.0,037.9,030.9,22.0,0000.0,0007.48,0002.40,0001.75
2023-07-27 11:37:00,SystemResetWarning,0833.3,4.99,000.00,029.4,027.6,000.0,037.9,031.0,22.3,0000.0,0007.42,0002.35,0001.74
2023-07-27 11:38:00,SystemResetWarning,0833.3,5.00,000.00,029.4,027.8,000.0,037.9,031.0,21.7,0000.0,0007.04,0002.32,0001.72
2023-07-27 11:39:00,SystemResetWarning,0833.3,5.00,000.00,029.4,027.9,000.0,037.9,031.0,21.5,0000.0,0006.64,0002.33,0001.71
2023-07-27 11:40:00,SystemResetWarning,0833.2,5.00,000.00,029.4,028.0,000.0,037.9,031.1,21.9,0000.0,0006.62,0002.34,0001.71
2023-07-27 11:41:00,SystemResetWarning,0833.3,5.01,000.00,029.5,028.1,000.0,037.9,031.1,21.9,0000.0,0005.63,0002.37,0001.72
2023-07-27 11:42:00,SystemResetWarning,0833.3,5.00,000.00,029.5,028.2,000.0,037.9,031.1,22.6,0000.0,0005.37,0002.31,0001.72
2023-07-27 11:43:00,SystemResetWarning,0833.3,4.99,000.00,029.5,028.3,000.0,037.9,031.1,22.6,0000.0,0004.82,0002.32,0001.73
2023-07-27 11:44:00,SystemResetWarning,0833.3,5.00,000.00,029.6,028.4,000.0,037.9,031.2,22.2,0000.0,0004.80,0002.33,0001.73
2023-07-27 11:45:00,SystemResetWarning,0833.3,5.00,000.00,029.6,028.4,000.0,038.0,031.2,21.9,0000.0,0004.81,0002.32,0001.72
2023-07-27 11:46:00,SystemResetWarning,0833.3,5.00,000.00,029.6,028.5,000.0,038.0,031.2,21.8,0000.0,0004.05,0002.32,0001.73
2023-07-27 11:47:00,SystemResetWarning,0833.3,5.00,000.00,029.6,028.5,000.0,038.0,031.3,21.6,0000.0,0003.72,0002.41,0001.74
2023-07-27 11:48:00,SystemResetWarning,0833.4,5.00,000.00,029.7,028.6,000.0,038.0,031.3,21.5,0000.0,0003.78,0002.42,0001.76
2023-07-27 11:49:00,SystemResetWarning,0833.3,5.00,000.00,029.7,028.6,000.0,038.1,031.3,21.4,0000.0,0004.03,0002.46,0001.77
2023-07-27 11:50:00,SystemResetWarning,0833.3,5.00,000.00,029.7,028.7,000.0,038.1,031.4,21.1,0000.0,0004.05,0002.47,0001.79
2023-07-27 11:51:00,SystemResetWarning,0833.3,4.99,000.00,029.8,028.4,000.0,038.1,031.4,21.0,0000.0,0004.08,0002.49,0001.80
2023-07-27 11:52:00,SystemResetWarning,0833.2,4.99,000.00,029.7,026.6,000.0,038.0,031.1,21.0,0000.0,0004.16,0002.51,0001.81
2023-07-27 11:53:00,SystemResetWarning,0833.3,5.01,000.00,029.6,025.5,000.0,037.9,030.9,20.8,0000.0,0004.95,0002.51,0001.81
2023-07-27 11:54:00,SystemResetWarning,0833.3,5.02,000.00,029.5,025.6,000.0,037.9,030.7,20.8,0000.0,0005.45,0002.56,0001.81
2023-07-27 11:55:00,SystemResetWarning,0833.3,5.00,000.00,029.4,025.9,000.0,037.9,030.6,20.9,0000.0,0005.52,0002.55,0001.81
2023-07-27 11:56:00,SystemResetWarning,0833.3,4.99,000.00,029.4,026.3,000.0,037.9,030.7,20.9,0000.0,0005.63,0002.58,0001.81
2023-07-27 11:57:00,SystemResetWarning,0833.3,5.01,000.00,029.4,026.7,000.0,037.9,030.8,21.0,0000.0,0005.64,0002.58,0001.80
2023-07-27 11:58:00,SystemResetWarning,0833.4,4.99,000.00,029.4,027.0,000.0,037.9,030.8,21.1,0000.0,0005.68,0002.58,0001.80
2023-07-27 11:59:00,SystemResetWarning,0833.3,4.99,000.00,029.4,027.2,000.0,037.9,030.9,21.0,0000.0,0005.74,0002.59,0001.78
